Theta_e
312 313 309 308 309 308 306 305 302 297 298 302 305 309 310 310 309 309 309 315 315 315 315 313 310 310 310 311 311 312 313 313 315 316 317 319 318 318
310 311 311 310 308 307 306 305 304 302 297 303 303 306 309 309 310 308 309 315 315 315 315 312 311 312 310 310 309 310 311 312 313 314 315 316 315 315
311 309 308 309 307 306 305 304 303 303 299 301 303 305 307 307 307 309 308 308 307 314 312 312 312 311 311 310 310 309 310 311 312 313 314 314 313 313
310 308 307 308 307 306 303 303 301 303 300 297 301 302 304 305 306 304 307 307 307 312 311 310 310 310 309 310 310 310 310 311 311 311 312 312 312 313
307 307 307 306 304 303 302 300 300 300 300 299 299 302 303 303 304 305 304 305 306 310 310 311 309 309 310 309 309 309 309 307 305 306 306 307 309 309
309 308 307 305 303 301 298 299 298 299 300 299 299 299 302 303 303 300 300 302 301 304 307 307 308 309 309 310 310 309 307 304 304 304 304 305 306 307
309 309 306 305 306 303 299 298 298 298 299 298 297 298 298 299 298 299 298 300 300 301 300 300 302 300 301 307 308 309 305 303 303 303 303 304 304 305
307 307 306 306 304 304 304 304 304 300 297 298 297 297 297 298 299 297 296 296 294 300 299 298 301 299 300 303 306 304 303 303 304 304 304 304 303 302
308 308 305 303 303 300 302 304 304 306 305 300 296 296 295 297 297 296 296 296 295 298 298 294 298 298 300 304 305 304 303 303 303 302 302 301 301 300
308 307 307 305 302 298 300 300 301 302 302 300 299 299 300 300 300 298 296 296 297 297 298 292 297 296 300 302 304 303 302 301 300 300 300 300 300 299
305 308 306 303 299 296 300 300 300 300 304 303 302 301 299 300 300 298 294 294 292 294 296 296 295 295 297 298 300 302 301 301 300 300 300 300 299 298
306 306 300 300 296 296 299 300 298 299 299 300 300 300 301 300 301 299 296 292 292 292 295 293 293 295 292 298 301 302 300 301 300 300 300 300 298 296
303 304 305 298 296 296 295 298 299 298 299 300 297 296 296 295 295 296 296 295 293 292 296 297 295 295 294 292 297 297 298 299 299 300 299 299 297 297
304 305 306 297 295 297 298 297 295 297 299 297 295 294 293 293 294 295 295 296 298 297 298 299 296 294 294 293 293 296 297 297 297 296 298 298 298 298
303 303 298 296 298 299 298 297 299 299 296 294 293 292 293 294 294 294 295 297 298 298 301 301 298 297 296 294 293 295 293 295 296 296 295 295 295 296
304 302 302 300 300 300 301 301 301 297 295 293 292 293 293 293 293 294 293 294 293 294 299 300 299 299 296 296 296 294 294 291 295 295 295 295 296 297
294 303 305 303 302 300 300 300 299 297 295 293 292 291 291 291 292 293 293 294 293 293 294 297 298 297 297 296 293 294 293 293 294 293 293 293 295 296
301 302 302 300 298 298 299 298 299 296 295 293 292 291 291 291 291 292 293 293 293 294 294 295 294 293 294 296 297 293 293 293 293 294 294 292 293 295
304 300 299 299 298 298 298 298 297 296 295 293 292 291 291 292 291 292 293 293 293 293 293 294 293 292 289 287 294 297 293 293 294 293 294 293 293 294
302 299 298 298 298 298 299 298 296 295 293 293 292 291 292 291 292 292 293 292 292 292 293 294 294 293 290 288 288 293 295 294 294 293 293 295 295 296
299 298 299 298 298 299 298 298 296 294 292 292 292 291 291 291 291 293 293 291 291 293 292 294 296 291 295 296 292 293 296 295 296 294 293 292 292 293
300 299 299 299 299 299 298 296 295 293 292 291 290 290 290 291 291 293 294 294 295 295 295 297 298 298 295 293 292 293 295 296 297 297 296 294 291 288
300 299 298 299 299 299 297 295 293 291 291 290 289 289 290 290 293 295 296 297 297 297 297 296 297 298 295 295 292 293 294 294 295 293 294 295 295 294
Wind_Speed
5 5 5 5 7 7 4 5 5 5 8 8 6 3 5 4 2 3 5 9 11 12 10 8 8 11 13 14 14 14 15 16 16 15 16 14 8 7
3 6 4 3 6 7 8 7 7 5 5 6 8 5 1 3 7 3 5 13 15 17 6 8 10 11 11 11 12 14 14 15 14 14 15 12 7 7
5 6 9 8 6 6 8 8 8 6 7 8 8 9 6 4 3 4 5 9 4 6 6 10 12 14 12 10 11 14 15 15 13 12 11 10 9 9
7 8 5 6 7 7 7 8 8 9 8 11 8 9 6 6 1 5 6 7 7 7 5 7 11 9 11 11 12 12 13 11 7 6 7 6 7 9
6 6 6 7 7 6 7 8 8 8 9 9 10 7 7 2 4 4 6 8 7 14 10 8 6 6 11 12 13 12 7 2 0 1 1 3 5 9
5 5 5 6 5 5 7 7 8 9 9 9 9 9 7 6 4 4 5 4 5 8 8 7 7 10 11 12 15 9 7 5 3 4 5 6 6 7
2 4 5 7 10 10 6 9 9 8 8 8 8 9 8 8 7 4 4 7 7 4 5 5 7 3 3 6 11 7 2 2 6 7 9 8 7 7
2 2 5 6 8 9 11 16 13 6 7 6 5 6 6 7 4 6 7 7 7 4 7 8 7 5 3 3 4 8 9 7 5 7 8 6 5 5
6 3 4 5 5 6 8 15 12 13 9 7 7 9 10 9 5 6 8 8 8 8 5 5 6 6 5 1 8 8 7 5 5 5 3 5 6 6
7 3 2 3 2 5 5 8 11 12 10 6 5 8 10 7 5 4 5 7 7 5 5 7 6 6 5 5 11 9 7 5 4 4 5 4 4 5
8 6 2 3 4 9 4 9 12 11 10 10 11 13 4 4 6 6 5 6 6 6 7 2 4 6 5 4 3 7 6 6 8 8 7 7 6 6
7 2 2 6 9 6 4 7 9 10 12 10 9 8 6 10 14 7 3 5 5 4 3 4 6 6 4 2 2 3 3 8 10 10 9 9 6 3
6 5 5 9 12 12 8 8 11 10 10 9 9 8 8 8 7 7 9 5 7 5 7 3 3 6 3 3 4 3 1 0 3 3 7 8 7 7
6 5 5 11 9 10 13 13 12 6 6 8 8 8 8 7 7 8 9 9 7 10 10 9 4 3 6 3 4 2 2 2 3 4 1 3 8 10
6 9 15 7 11 8 6 12 7 6 7 8 7 7 7 7 9 8 9 9 7 9 6 4 3 4 3 4 5 3 2 2 5 2 2 3 4 3
3 7 8 4 9 12 6 5 6 6 6 5 6 6 6 6 7 6 6 7 6 6 5 4 5 5 4 4 4 3 1 2 3 1 2 4 4 4
7 6 4 6 4 7 7 7 6 6 8 6 6 7 6 6 7 6 6 6 5 5 5 4 6 7 5 5 2 2 3 3 3 4 3 4 2 3
4 7 5 6 8 9 8 8 5 9 7 6 6 6 7 6 7 7 6 6 6 5 4 2 4 5 3 1 1 2 3 2 3 5 4 2 3 3
3 4 7 7 7 8 8 6 7 9 8 6 6 6 7 7 6 7 6 7 6 6 5 5 3 2 3 3 3 6 3 2 3 4 3 3 3 2
3 8 8 9 9 10 8 8 7 9 8 7 6 7 6 6 7 7 6 5 5 5 5 4 2 2 2 2 3 4 10 4 3 3 3 3 4 5
8 7 8 8 9 9 9 9 10 8 7 7 6 6 6 6 7 7 6 7 6 5 6 5 3 5 4 4 2 3 3 10 4 2 4 3 3 1
10 9 8 9 9 9 10 9 9 8 7 6 7 6 7 6 7 7 7 6 6 6 6 6 4 3 2 2 5 5 3 1 2 4 1 2 2 3
7 8 8 9 9 9 10 9 7 7 6 7 7 7 7 7 7 6 6 7 7 6 7 3 3 1 2 2 3 3 5 3 2 3 3 4 2 0
Wind_Direction
30 1 348 1 339 351 356 1 10 344 333 338 4 56 342 325 56 250 268 272 269 273 255 236 272 292 305 311 317 315 312 302 299 298 289 272 258 254
360 0 353 346 0 8 355 11 357 353 325 326 335 308 329 283 302 270 295 288 276 265 267 211 254 271 285 287 305 308 305 301 284 284 286 259 240 243
5 348 17 34 12 16 357 351 340 348 329 325 317 309 310 311 318 351 330 304 320 104 160 232 246 258 263 276 285 296 297 300 291 289 274 231 216 224
14 40 21 23 11 18 1 333 332 332 337 320 318 308 286 291 36 318 316 319 290 220 276 283 264 243 258 269 268 273 284 283 289 311 234 226 277 280
30 14 6 42 27 9 338 337 338 333 317 303 299 302 307 15 0 17 301 287 318 322 297 259 256 272 265 272 265 253 264 187 149 3 348 303 262 261
10 357 48 52 46 7 353 335 326 315 315 317 320 326 344 333 358 326 319 297 305 316 314 281 266 252 273 289 279 221 195 185 227 262 279 280 272 281
29 349 29 57 56 21 350 326 314 312 309 311 320 326 324 340 337 310 312 300 289 278 308 336 309 309 310 359 302 242 139 297 280 277 273 265 272 271
326 322 325 73 37 349 341 316 303 315 335 335 319 306 310 317 315 330 318 335 321 316 341 327 322 306 306 39 132 183 194 241 277 271 269 255 260 266
322 321 344 68 35 337 335 325 326 316 330 322 323 319 310 308 343 324 326 316 304 304 308 304 297 310 315 57 193 200 230 241 266 276 268 260 254 254
324 349 324 71 40 291 316 325 321 322 320 325 318 308 307 333 332 317 302 301 304 318 322 305 314 307 297 291 197 196 219 229 231 238 244 241 245 253
321 291 316 359 308 260 353 328 322 313 320 329 331 323 332 347 284 291 334 314 308 309 313 313 290 297 293 277 163 225 227 209 225 233 246 252 252 270
316 181 281 278 273 321 324 307 310 324 325 335 322 346 15 0 355 344 335 328 320 300 303 354 320 317 323 316 189 208 188 234 241 255 260 260 243 267
320 320 309 239 346 329 316 300 291 326 336 332 339 348 340 341 347 338 322 323 301 277 282 284 280 289 242 297 293 2 99 210 251 262 269 232 238 256
287 299 313 348 309 345 321 290 310 339 353 343 343 347 336 335 330 316 302 292 275 273 283 273 254 275 272 274 270 288 282 318 323 287 254 225 262 267
281 304 306 312 325 311 269 320 69 34 3 349 335 333 324 319 311 307 307 300 308 308 305 314 294 281 268 263 273 306 308 260 280 294 335 284 268 242
315 317 339 55 289 262 321 3 80 48 5 338 325 317 312 315 315 317 317 315 310 305 326 312 298 312 306 295 304 304 282 290 290 267 273 281 269 239
322 302 350 322 301 348 351 356 86 26 7 339 328 322 316 314 319 317 308 303 286 310 319 319 6 337 320 314 312 333 305 309 335 306 296 290 271 278
318 339 314 359 7 337 338 359 47 17 355 333 323 319 315 316 315 315 307 310 318 321 329 332 332 329 322 303 180 305 285 265 274 290 276 270 265 230
281 289 21 7 339 336 342 357 44 5 339 327 320 316 318 311 311 315 318 332 336 340 324 317 322 320 327 321 286 228 274 273 291 290 278 259 271 209
349 21 16 358 352 341 6 28 26 351 338 327 321 320 317 315 316 314 311 302 324 317 310 293 274 284 264 246 276 257 213 255 273 301 310 300 250 271
25 6 12 354 345 359 16 21 357 338 327 327 326 322 317 314 311 304 312 320 307 299 302 301 275 245 268 279 262 280 293 213 241 306 311 316 320 3
15 18 357 357 358 17 15 349 333 334 331 327 324 319 313 312 305 309 312 304 292 282 278 281 279 267 243 255 300 310 320 146 225 241 292 345 345 339
17 6 359 348 22 14 350 338 334 327 324 320 321 316 313 310 302 299 293 290 282 285 288 271 281 227 278 256 263 334 331 337 258 197 191 227 159 344